Погода Котельниково

Погода Котельниково : погода сейчас, прогноз погоды и архив. Всё, что Вы хотите узнать о погоде Котельниково!

Поиск расширенной информации на нашем сайте:

Другие новости

Новости СМИ2

Главная страница сайта

Новости сайта

02.10.2013

Напоминаем, что на нашем новом сайте вы можете получить высокодетализированные прогнозы погоды по пунктам России, СНГ и мира (включающие важные для авиации метеовеличины, такие как направление и скорость ветра, видимость, явления погоды, количество и форма облачности, нижняя и верхняя граница облачности), а также ознакомиться с разнообразными материалами по авиационной метеорологии и подборкой полезных ссылок на эту тему.

Сайт Метеоцентр.Азия посвящён разработке технологий оптимизации авиаметеорологического обслуживания, включая проектирование и перспективное создание нескольких автоматизированных авиаметеорологических систем:
- система выпуска высокодетальных прогностических карт явлений погоды для нижнего воздушного пространства по России и ближнему зарубежью;
- система верификации прогнозов TAF (выпускаемых синоптиками официальных АМСГ РФ и ближнего зарубежья) и AUTOTAF (выпускаемых сайтом Метеоцентр.Азия) - выявление ошибок, онлайн-сопоставление с фактической погодой METAR, автоматическое внесение коррективов в прогнозы при резком отклонении фактической погоды от прогноза, подсчёт оправдываемости прогнозов по элементам и в целом;
- система обработки, анализа и отображения авиаметеорологической информации для применения провайдерами метеорологической информации.


Погода Котельниково - сегодня

Время (UTC), дата Ветер
(°,м/с) 
Видим.   Явления Облачность Т
(°С)
Тd
(°С)
f(%) Тe
(°С)
Pmin
(гПа)
dP
(гПа)
Po
(мм)
O2
(г/м3)
Тmin Tmax R s Состояние
почвы
09 18.01.17 040 (СВ) 4000 м  слаб. снег  10/10 300 м 
[Frnb|Ns]
-3.1 -4.8 88 -5  1033.3  0.1  770  314           
12 18.01.17 060 (СВ) 10 км  в посл. час снег  10/10 600 м 
[Sc]
-3.2 -5.2 86 -5  1033.5  0.3  770  315           
15 18.01.17 030 (СВ) 10 км    10/10 600 м 
[Sc]
-3.4 -6 82 -6  1034.3  0.8  771  315    -2.2  0.0     
18 18.01.17 040 (СВ) 10 км    10/10 600 м 
[Sc]
-4 -7.2 78 -6  1035  0.7  772  316           
21 18.01.17 020 (С) 10 км    10/10 600 м 
[Sc]
-5.5 -7.7 84 -9  1034.9  0.7  771  318           
00 19.01.17 030 (СВ) 10 км    10/10 600 м 
[Sc]
-7.7 -9.6 86 -11  1035.4  0.7  772  321           
03 19.01.17 030 (СВ) 10 км    10/10 600 м 
[Sc]
-9.1 -11 86 -12  1035.9  0.4  772  323  -9.4      равномерный
сухой снег
100% 
06 19.01.17 020 (С) 10 км    10/10 600 м 
[Sc]
-7.5 -9 89 -10  1036.6  0.8  773  321           
09 19.01.17 030 (СВ) 10 км  {снег}  10/10 300 м 
[Sc]
-8.1 -10.1 85 -10  1036.6  0.1  773  322           
12 19.01.17 360 (С) 10 км    10/10 600 м 
[Sc]
-5.9 -9.1 78 -7  1035.7  -0.8  772  319           
15 19.01.17 010 (С) 10 км    10/10 600 м 
[Sc]
-7.2 -10.2 79 -9  1035.6  0.1  772  320    -5.8  0.0     
18 19.01.17 280 (З) 10 км    10/10 600 м 
[Sc]
-8 -10.3 83 -8  1035.5  0.1  772  321           
21 19.01.17 240 (ЮЗ) 10 км    10/10 600 м 
[Sc]
-8.4 -10.1 88 -8  1034.4  -1.1  771  322           
00 20.01.17 290 (З) 10 км    10/10 600 м 
[Sc]
-8.7 -10.6 86 -12  1033.5  -0.9  770  322           
03 20.01.17 250 (З) 10 км    10/10 600 м 
[Sc]
-8.2 -10 87 -12  1031.5  -1.9  769  320  -8.9         
06 20.01.17 250 (З) 10 км    10/10 600 м 
[Sc]
-7.9 -10 85 -12  1030.7  -0.8  768  320           
09 20.01.17 240 (ЮЗ) 10 км    10/10 600 м 
[Sc]
-7.2 -9.8 82 -12  1029  -1.7  767  318           
12 20.01.17 230 (ЮЗ) 6{10}  10 км    10/10 600 м 
[Sc]
-6.4 -9.3 80 -11  1025.8  -3.2  765  316           
15 20.01.17 230 (ЮЗ) 6{10}  10 км    10/10 600 м 
[Sc]
-6.6 -9.2 82 -11  1024.2  -1.7  763  316    -6.1       
18 20.01.17 250 (З) 5{10}  4000 м  слаб. снег  10/10 300 м 
[Frnb|Ns]
-6.2 -8.2 86 -10  1023.4  -0.8  763  315           
21 20.01.17 260 (З) 10 км  слаб. переохл. морось (гололёд){снег}  10/10 300 м 
[St]
-5.3 -6.6 91 -9  1022.5  -0.8  762  314           
00 21.01.17 270 (З) 10 км  слаб. переохл. морось (гололёд) [диам. гололёда 1 мм]  10/10 300 м 
[St]
-4.7 -6.1 90 -9  1021.8  -0.7  762  313           
03 21.01.17 270 (З) 10 км  {морось}  10/10 600 м 
[Sc]
-4.7 -6.1 90 -8  1020.9  -0.7  761  313  -6.6    0.6  равномерный
мокрый или
старый снег
100% 
06 21.01.17 260 (З) 4000 м  слаб. переохл. морось (гололёд) [диам. гололёда 2 мм]  10/10 300 м 
[St]
-4.3 -5.7 90 -8  1021.1  0.2  761  312           
09 21.01.17 250 (З) 10 км  {морось}  10/10 600 м 
[Sc]
-3.7 -5.3 89 -8  1020.1  -0.9  760  311           
Время (UTC), дата Ветер
(°,м/с) 
Видим.   Явления Облачность Т
(°С)
Тd
(°С)
f(%) Тe
(°С)
Pmin
(гПа)
dP
(гПа)
Po
(мм)
O2
(г/м3)
Тmin Tmax R s Состояние
почвы

Для получения пояснительной информации подведите курсор к названию столбца.

ПОГОДА Котельниково - архив

Всё, что Вы хотите узнать о погоде Котельниково - удобно и подробно!

Выберите нужную дату (начиная с 1 января 2015* года) и нажмите кнопку "Найти".
Будут отображены архивные сводки погоды по пункту Котельниково, начиная с указанной даты.


Отображать данные в формате CSV (для использования в таблицах Excel)


Внимание! Наш архив погоды предназначен исключительно для личного некоммерческого использования в познавательных целях. Если Вам необходимы официальные справки о состоянии погоды (для производственных, юридических, коммерческих и т.п. целей), обращайтесь в органы Росгидромета.

*Примечание: данная дата относится к архиву по метеостанциям СССР (Россия, СНГ, Балтия).
Архив по метеостанциям Зарубежной Европы и Азии (кроме Китая) хранится 10 дней, по другим регионам земного шара (Китай, Африка, Америка, Австралия, Океания) - 1 день.

Котельниково - район местоположения метеостанции


Название, широта, долгота, высота метеостанции:
Котельниково 47.6°ш. 43.2°д. 49 м над ур. моря [Российская Федерация]

Дополнительная информация

В oтличие oт бoльшинства пoгoдных сайтoв мы публикуем пoдрoбную метеoинфoрмацию в детальнoм прoфессиoнальнoм фoрмате.

Характеристики температуры и влажнoсти вoздуха измеряются на высoте 2 м в тени вдали oт зданий и деревьев.
Скoрoсть ветра измеряется на высoте 10 м (на урoвне рoста челoвека скoрoсть ветра ниже в 1.5-2 раза). Если метеoстанция нахoдится в гoрoде или в лесу, тo скoрoсть ветра занижена на 2-4 м/с пo сравнению с oткрытым местoм. Скoрoсть ветра над акватoриями крупных рек и oзёр, а также на вершинах хoлмoв на 2-5 м/с выше, чем в oбычных услoвиях.
Атмoсфернoе давление в разных тoчках местнoсти мoжет значительнo oтличаться oт давления на метеoстанции, в зависимoсти oт услoвий рельефа (при пoдъёме на 10 м давление пoнижается примернo на 1 мм рт.ст.).